Time,TemperatureF,DewpointF,PressureIn,WindDirection,WindDirectionDegrees,WindSpeedMPH,WindSpeedGustMPH,Humidity,HourlyPrecipIn,Conditions,Clouds,dailyrainin,SoftwareType,DateUTC
2013-07-28 00:08:00,56.9,52.0,29.77,West,278,3.0,8.0,84,0.00,,,0.00,weatherlink.com 1.10,2013-07-28 04:08:00,
2013-07-28 00:23:00,56.7,52.0,29.77,WSW,249,1.0,9.0,84,0.00,,,0.00,weatherlink.com 1.10,2013-07-28 04:23:00,
2013-07-28 00:38:00,56.5,51.0,29.77,West,276,0.0,7.0,83,0.00,,,0.00,weatherlink.com 1.10,2013-07-28 04:38:00,
2013-07-28 00:53:00,56.4,51.0,29.77,West,271,4.0,5.0,83,0.00,,,0.00,weatherlink.com 1.10,2013-07-28 04:53:00,
2013-07-28 01:08:00,56.0,51.0,29.78,WSW,246,2.0,7.0,83,0.00,,,0.00,weatherlink.com 1.10,2013-07-28 05:08:00,
2013-07-28 01:23:00,55.2,51.0,29.78,WNW,289,3.0,8.0,86,0.00,,,0.00,weatherlink.com 1.10,2013-07-28 05:23:00,
2013-07-28 01:38:00,54.9,51.0,29.78,WSW,242,1.0,6.0,87,0.00,,,0.00,weatherlink.com 1.10,2013-07-28 05:38:00,
2013-07-28 01:53:00,54.3,51.0,29.77,West,276,4.0,7.0,88,0.00,,,0.00,weatherlink.com 1.10,2013-07-28 05:53:00,
2013-07-28 02:08:00,53.5,50.0,29.78,West,259,2.0,6.0,89,0.00,,,0.00,weatherlink.com 1.10,2013-07-28 06:08:00,
2013-07-28 02:23:00,53.0,50.0,29.77,WSW,253,2.0,7.0,90,0.00,,,0.00,weatherlink.com 1.10,2013-07-28 06:23:00,
2013-07-28 02:38:00,52.8,50.0,29.77,WSW,249,2.0,6.0,90,0.00,,,0.00,weatherlink.com 1.10,2013-07-28 06:38:00,
2013-07-28 02:53:00,52.6,50.0,29.77,West,264,1.0,4.0,91,0.00,,,0.00,weatherlink.com 1.10,2013-07-28 06:53:00,
2013-07-28 03:08:00,52.6,50.0,29.77,WSW,256,2.0,4.0,92,0.00,,,0.00,weatherlink.com 1.10,2013-07-28 07:08:00,
2013-07-28 03:23:00,52.9,51.0,29.77,WSW,238,1.0,2.0,92,0.00,,,0.00,weatherlink.com 1.10,2013-07-28 07:23:00,
2013-07-28 03:38:00,53.4,51.0,29.77,West,262,0.0,3.0,91,0.00,,,0.00,weatherlink.com 1.10,2013-07-28 07:38:00,
2013-07-28 03:53:00,54.1,51.0,29.77,SW,235,2.0,7.0,89,0.00,,,0.00,weatherlink.com 1.10,2013-07-28 07:53:00,
2013-07-28 04:08:00,54.5,51.0,29.77,WSW,252,5.0,7.0,88,0.00,,,0.00,weatherlink.com 1.10,2013-07-28 08:08:00,
2013-07-28 04:23:00,54.6,51.0,29.77,WSW,250,2.0,8.0,87,0.00,,,0.00,weatherlink.com 1.10,2013-07-28 08:23:00,
2013-07-28 04:38:00,54.5,50.0,29.77,NW,309,0.0,8.0,86,0.00,,,0.00,weatherlink.com 1.10,2013-07-28 08:38:00,
2013-07-28 04:53:00,54.3,50.0,29.77,SW,236,2.0,7.0,86,0.00,,,0.00,weatherlink.com 1.10,2013-07-28 08:53:00,
2013-07-28 05:08:00,54.1,50.0,29.78,WSW,246,3.0,8.0,85,0.00,,,0.00,weatherlink.com 1.10,2013-07-28 09:08:00,
2013-07-28 05:23:00,53.7,50.0,29.78,West,263,3.0,10.0,86,0.00,,,0.00,weatherlink.com 1.10,2013-07-28 09:23:00,
2013-07-28 05:38:00,52.9,49.0,29.78,WSW,246,0.0,8.0,87,0.00,,,0.00,weatherlink.com 1.10,2013-07-28 09:38:00,
2013-07-28 05:53:00,51.9,49.0,29.78,WNW,282,2.0,7.0,89,0.00,,,0.00,weatherlink.com 1.10,2013-07-28 09:53:00,
2013-07-28 06:08:00,51.5,49.0,29.79,West,273,0.0,6.0,91,0.00,,,0.00,weatherlink.com 1.10,2013-07-28 10:08:00,
2013-07-28 06:23:00,51.4,49.0,29.79,West,264,3.0,7.0,91,0.00,,,0.00,weatherlink.com 1.10,2013-07-28 10:23:00,
2013-07-28 06:38:00,51.6,49.0,29.80,West,265,3.0,7.0,91,0.00,,,0.00,weatherlink.com 1.10,2013-07-28 10:38:00,
2013-07-28 06:53:00,51.8,49.0,29.80,SW,226,5.0,7.0,91,0.00,,,0.00,weatherlink.com 1.10,2013-07-28 10:53:00,
2013-07-28 07:08:00,52.1,50.0,29.80,WSW,245,4.0,7.0,91,0.00,,,0.00,weatherlink.com 1.10,2013-07-28 11:08:00,
2013-07-28 07:23:00,52.7,50.0,29.80,SSW,207,1.0,5.0,91,0.00,,,0.00,weatherlink.com 1.10,2013-07-28 11:23:00,
2013-07-28 07:38:00,53.2,50.0,29.80,WSW,245,1.0,8.0,90,0.00,,,0.00,weatherlink.com 1.10,2013-07-28 11:38:00,
2013-07-28 07:53:00,53.8,51.0,29.80,West,264,5.0,9.0,90,0.00,,,0.00,weatherlink.com 1.10,2013-07-28 11:53:00,
2013-07-28 08:08:00,54.7,52.0,29.80,SW,233,1.0,7.0,89,0.00,,,0.00,weatherlink.com 1.10,2013-07-28 12:08:00,
2013-07-28 08:23:00,55.9,52.0,29.80,West,264,6.0,7.0,87,0.00,,,0.00,weatherlink.com 1.10,2013-07-28 12:23:00,
2013-07-28 08:38:00,57.2,53.0,29.80,West,260,2.0,6.0,85,0.00,,,0.00,weatherlink.com 1.10,2013-07-28 12:38:00,
2013-07-28 08:54:00,58.0,53.0,29.80,West,269,2.0,11.0,83,0.00,,,0.00,weatherlink.com 1.10,2013-07-28 12:54:00,
2013-07-28 09:09:00,57.5,53.0,29.81,WNW,287,2.0,8.0,84,0.00,,,0.00,weatherlink.com 1.10,2013-07-28 13:09:00,
2013-07-28 09:24:00,57.9,53.0,29.81,West,266,2.0,7.0,84,0.00,,,0.00,weatherlink.com 1.10,2013-07-28 13:24:00,
2013-07-28 09:39:00,57.8,53.0,29.81,West,267,8.0,8.0,84,0.00,,,0.00,weatherlink.com 1.10,2013-07-28 13:39:00,
2013-07-28 09:54:00,57.9,53.0,29.82,West,268,0.0,6.0,84,0.00,,,0.00,weatherlink.com 1.10,2013-07-28 13:54:00,
2013-07-28 10:09:00,58.1,53.0,29.81,WSW,242,8.0,8.0,84,0.00,,,0.00,weatherlink.com 1.10,2013-07-28 14:09:00,
2013-07-28 10:24:00,57.8,53.0,29.81,WSW,252,7.0,7.0,85,0.00,,,0.00,weatherlink.com 1.10,2013-07-28 14:24:00,
2013-07-28 10:39:00,57.8,54.0,29.81,WSW,245,3.0,8.0,86,0.00,,,0.00,weatherlink.com 1.10,2013-07-28 14:39:00,
2013-07-28 10:54:00,58.2,54.0,29.81,West,266,4.0,6.0,86,0.00,,,0.00,weatherlink.com 1.10,2013-07-28 14:54:00,
2013-07-28 11:09:00,58.7,54.0,29.81,WNW,283,4.0,8.0,84,0.00,,,0.00,weatherlink.com 1.10,2013-07-28 15:09:00,
2013-07-28 11:24:00,59.8,54.0,29.81,West,263,0.0,8.0,82,0.00,,,0.00,weatherlink.com 1.10,2013-07-28 15:24:00,
2013-07-28 11:39:00,60.6,54.0,29.81,SW,219,1.0,9.0,80,0.00,,,0.00,weatherlink.com 1.10,2013-07-28 15:39:00,
2013-07-28 11:54:00,61.5,55.0,29.81,South,186,2.0,6.0,79,0.00,,,0.00,weatherlink.com 1.10,2013-07-28 15:54:00,
2013-07-28 12:09:00,62.2,55.0,29.81,WSW,245,2.0,8.0,77,0.00,,,0.00,weatherlink.com 1.10,2013-07-28 16:09:00,
2013-07-28 12:24:00,62.9,55.0,29.81,SW,229,8.0,9.0,75,0.00,,,0.00,weatherlink.com 1.10,2013-07-28 16:24:00,
2013-07-28 12:39:00,62.9,55.0,29.81,WSW,256,1.0,8.0,75,0.00,,,0.00,weatherlink.com 1.10,2013-07-28 16:39:00,
2013-07-28 12:54:00,65.2,57.0,29.81,West,271,2.0,5.0,74,0.00,,,0.00,weatherlink.com 1.10,2013-07-28 16:54:00,
2013-07-28 13:09:00,63.6,54.0,29.81,West,267,4.0,10.0,71,0.00,,,0.00,weatherlink.com 1.10,2013-07-28 17:09:00,
2013-07-28 13:24:00,64.3,56.0,29.81,West,279,0.0,7.0,75,0.00,,,0.00,weatherlink.com 1.10,2013-07-28 17:24:00,
2013-07-28 13:39:00,64.2,55.0,29.80,West,262,6.0,10.0,72,0.00,,,0.00,weatherlink.com 1.10,2013-07-28 17:39:00,
2013-07-28 13:54:00,64.9,54.0,29.80,West,266,5.0,11.0,69,0.00,,,0.00,weatherlink.com 1.10,2013-07-28 17:54:00,
2013-07-28 14:09:00,66.1,53.0,29.80,WSW,239,6.0,7.0,64,0.00,,,0.00,weatherlink.com 1.10,2013-07-28 18:09:00,
2013-07-28 14:24:00,65.8,54.0,29.80,West,273,1.0,7.0,67,0.00,,,0.00,weatherlink.com 1.10,2013-07-28 18:24:00,
2013-07-28 14:39:00,65.2,54.0,29.80,WSW,246,3.0,8.0,68,0.00,,,0.00,weatherlink.com 1.10,2013-07-28 18:39:00,
2013-07-28 14:54:00,65.0,55.0,29.81,NW,314,1.0,5.0,71,0.00,,,0.00,weatherlink.com 1.10,2013-07-28 18:54:00,
2013-07-28 15:09:00,64.3,55.0,29.81,West,276,2.0,6.0,72,0.00,,,0.00,weatherlink.com 1.10,2013-07-28 19:09:00,
2013-07-28 15:24:00,64.2,55.0,29.81,West,262,0.0,6.0,71,0.00,,,0.00,weatherlink.com 1.10,2013-07-28 19:24:00,
2013-07-28 15:39:00,66.4,55.0,29.81,West,280,3.0,8.0,66,0.00,,,0.00,weatherlink.com 1.10,2013-07-28 19:39:00,
2013-07-28 15:54:00,67.2,55.0,29.81,WSW,239,2.0,8.0,65,0.00,,,0.00,weatherlink.com 1.10,2013-07-28 19:54:00,
2013-07-28 16:09:00,68.6,54.0,29.81,South,188,1.0,13.0,60,0.00,,,0.00,weatherlink.com 1.10,2013-07-28 20:09:00,
2013-07-28 16:24:00,68.8,54.0,29.81,West,267,8.0,13.0,60,0.00,,,0.00,weatherlink.com 1.10,2013-07-28 20:24:00,
2013-07-28 16:39:00,67.9,55.0,29.82,West,271,2.0,11.0,63,0.00,,,0.00,weatherlink.com 1.10,2013-07-28 20:39:00,
2013-07-28 16:54:00,67.5,55.0,29.82,WSW,250,2.0,8.0,65,0.00,,,0.00,weatherlink.com 1.10,2013-07-28 20:54:00,
2013-07-28 17:09:00,67.0,56.0,29.82,West,266,4.0,7.0,67,0.00,,,0.00,weatherlink.com 1.10,2013-07-28 21:09:00,
2013-07-28 17:24:00,65.8,55.0,29.82,WNW,283,3.0,12.0,69,0.00,,,0.00,weatherlink.com 1.10,2013-07-28 21:24:00,
2013-07-28 17:39:00,65.9,55.0,29.82,West,274,2.0,12.0,69,0.00,,,0.00,weatherlink.com 1.10,2013-07-28 21:39:00,
2013-07-28 17:54:00,66.8,55.0,29.83,NW,304,4.0,13.0,65,0.00,,,0.00,weatherlink.com 1.10,2013-07-28 21:54:00,
2013-07-28 18:09:00,66.2,56.0,29.83,West,263,7.0,11.0,69,0.00,,,0.00,weatherlink.com 1.10,2013-07-28 22:09:00,
2013-07-28 18:25:00,65.4,55.0,29.84,WSW,255,6.0,10.0,68,0.00,,,0.00,weatherlink.com 1.10,2013-07-28 22:25:00,
2013-07-28 18:40:00,67.2,56.0,29.84,West,274,2.0,15.0,67,0.00,,,0.00,weatherlink.com 1.10,2013-07-28 22:40:00,
2013-07-28 18:55:00,65.1,55.0,29.85,NW,306,4.0,11.0,71,0.00,,,0.00,weatherlink.com 1.10,2013-07-28 22:55:00,
2013-07-28 19:10:00,64.5,56.0,29.85,SW,235,1.0,8.0,74,0.00,,,0.00,weatherlink.com 1.10,2013-07-28 23:10:00,
2013-07-28 19:25:00,64.2,56.0,29.86,NNE,16,1.0,5.0,74,0.00,,,0.00,weatherlink.com 1.10,2013-07-28 23:25:00,
2013-07-28 19:40:00,64.3,56.0,29.86,WSW,252,0.0,5.0,75,0.00,,,0.00,weatherlink.com 1.10,2013-07-28 23:40:00,
2013-07-28 19:55:00,64.2,56.0,29.86,West,270,0.0,6.0,74,0.00,,,0.00,weatherlink.com 1.10,2013-07-28 23:55:00,
2013-07-28 20:10:00,63.9,55.0,29.87,WSW,250,1.0,3.0,74,0.00,,,0.00,weatherlink.com 1.10,2013-07-29 00:10:00,
2013-07-28 20:25:00,63.4,55.0,29.87,SW,235,1.0,4.0,74,0.00,,,0.00,weatherlink.com 1.10,2013-07-29 00:25:00,
2013-07-28 20:40:00,63.1,54.0,29.87,West,262,4.0,6.0,73,0.00,,,0.00,weatherlink.com 1.10,2013-07-29 00:40:00,
2013-07-28 20:55:00,63.3,53.0,29.88,WNW,297,3.0,10.0,69,0.00,,,0.00,weatherlink.com 1.10,2013-07-29 00:55:00,
2013-07-28 21:10:00,62.7,53.0,29.88,WNW,293,0.0,5.0,70,0.00,,,0.00,weatherlink.com 1.10,2013-07-29 01:10:00,
2013-07-28 21:25:00,61.5,52.0,29.89,West,263,0.0,3.0,72,0.00,,,0.00,weatherlink.com 1.10,2013-07-29 01:25:00,
2013-07-28 21:40:00,60.8,52.0,29.89,WNW,294,2.0,4.0,73,0.00,,,0.00,weatherlink.com 1.10,2013-07-29 01:40:00,
2013-07-28 21:55:00,60.6,52.0,29.89,NW,321,0.0,6.0,74,0.00,,,0.00,weatherlink.com 1.10,2013-07-29 01:55:00,
2013-07-28 22:10:00,60.4,52.0,29.90,WNW,300,0.0,4.0,75,0.00,,,0.00,weatherlink.com 1.10,2013-07-29 02:10:00,
2013-07-28 22:25:00,60.3,53.0,29.90,WSW,245,0.0,4.0,77,0.00,,,0.00,weatherlink.com 1.10,2013-07-29 02:25:00,
2013-07-28 22:55:00,58.6,54.0,29.91,WNW,288,0.0,4.0,85,0.01,,,0.01,weatherlink.com 1.10,2013-07-29 02:55:00,
2013-07-28 23:10:00,57.8,55.0,29.91,West,279,0.0,4.0,89,0.01,,,0.01,weatherlink.com 1.10,2013-07-29 03:10:00,
2013-07-28 23:25:00,57.3,55.0,29.91,WSW,246,2.0,5.0,90,0.01,,,0.01,weatherlink.com 1.10,2013-07-29 03:25:00,
2013-07-28 23:40:00,57.0,55.0,29.91,WSW,252,1.0,5.0,92,0.02,,,0.02,weatherlink.com 1.10,2013-07-29 03:40:00,
2013-07-28 23:55:00,56.9,55.0,29.91,West,266,4.0,8.0,93,0.01,,,0.02,weatherlink.com 1.10,2013-07-29 03:55:00,